Philadelphia, PA

4:57 AM EST on December 10, 2019 (GMT -0500)
Philadelphia International

Weather History for KPHL - June, 2019

Change the Weather History Date:

Sunday, June 9, 2019

  Actual Average Record
Temperature  
Mean Temperature 71 °F 72 °F  
Max Temperature 81 °F 81 °F 99 °F (2011)
Min Temperature 60 °F 62 °F 44 °F (1957)
Degree Days  
Heating Degree Days 0 1  
Month to date heating degree days 1 9  
Since 1 June heating degree days 1 9  
Since 1 July heating degree days 4360 4611  
Cooling Degree Days 6 7  
Month to date cooling degree days 67 55  
Year to date cooling degree days 217 146  
Since 1 June cooling degree days 67 55  
Growing Degree Days 20 (Base 50)    
Moisture  
Dew Point 52 °F    
Average Humidity 57    
Maximum Humidity 84    
Minimum Humidity 30    
Precipitation  
Precipitation T in 0.12 in 2.03 in (1910)
Month to date precipitation 1.06 1.10  
Year to date precipitation 20.34 17.84  
Snow  
Snow 0.00 in 0.00 in T in (1993)
Month to date snowfall 0.0 0.0  
Since 1 June snowfall 0.0 0.0  
Since 1 July snowfall 17.1 22.4  
Snow Depth 0.00 in    
Sea Level Pressure  
Sea Level Pressure 30.22 in    
Wind  
Wind Speed 14 mph (ENE)    
Max Wind Speed 22 mph    
Max Gust Speed 28 mph    
Visibility 10 miles    
Events Rain    
T = Trace of Precipitation, MM = Missing Value Source: NWS Daily Summary

Daily Weather History Graph

Daily Weather History Graph

Search for Another Location

Airport or City:

Astronomy

Jun. 09, 2019 Rise Set
Actual Time 5:32 AM EDT 8:28 PM EDT
Civil Twilight 4:59 AM EDT 9:00 PM EDT
Nautical Twilight 4:18 AM EDT 9:41 PM EDT
Astronomical Twilight 3:31 AM EDT 10:29 PM EDT
Moon 12:07 PM EDT (6/9) 1:07 AM EDT (6/9)
Length of Visible Light 16h 00m
Length of Day
14h 55m
Waxing Crescent, 43% of the Moon is Illuminated
Jun 9
Waxing Crescent
Jun 10
First Quarter
Jun 17
Full
Jun 25
Last Quarter
Jul 2
New

Hourly Weather History & Observations

Time (EDT) Temp. Dew Point Humidity Pressure Visibility Wind Dir Wind Speed Gust Speed Precip Events Conditions
12:54 AM 63.0 °F 55.0 °F 75% 30.22 in 10.0 mi ENE 6.9 mph - N/A   Mostly Cloudy
1:54 AM 61.0 °F 55.0 °F 81% 30.22 in 10.0 mi ENE 5.8 mph - N/A   Mostly Cloudy
2:54 AM 62.1 °F 55.0 °F 78% 30.21 in 10.0 mi NE 6.9 mph - N/A   Mostly Cloudy
3:54 AM 62.1 °F 54.0 °F 75% 30.19 in 10.0 mi NE 9.2 mph - N/A   Mostly Cloudy
4:54 AM 61.0 °F 53.1 °F 75% 30.20 in 10.0 mi NE 8.1 mph - N/A   Mostly Cloudy
5:54 AM 61.0 °F 54.0 °F 78% 30.22 in 10.0 mi NE 8.1 mph - N/A   Mostly Cloudy
6:54 AM 63.0 °F 55.0 °F 75% 30.24 in 10.0 mi NE 10.4 mph - N/A   Mostly Cloudy
7:54 AM 66.0 °F 55.9 °F 70% 30.25 in 10.0 mi NE 10.4 mph - N/A   Mostly Cloudy
8:54 AM 70.0 °F 54.0 °F 57% 30.25 in 10.0 mi East 13.8 mph - N/A   Mostly Cloudy
9:54 AM 73.9 °F 54.0 °F 50% 30.25 in 10.0 mi East 16.1 mph - N/A   Mostly Cloudy
10:54 AM 77.0 °F 53.1 °F 43% 30.25 in 10.0 mi ENE 17.3 mph - N/A   Mostly Cloudy
11:54 AM 78.1 °F 51.1 °F 39% 30.25 in 10.0 mi East 18.4 mph 25.3 mph N/A   Mostly Cloudy
12:54 PM 79.0 °F 48.0 °F 34% 30.25 in 10.0 mi East 17.3 mph - N/A   Mostly Cloudy
1:54 PM 80.1 °F 48.9 °F 34% 30.24 in 10.0 mi East 19.6 mph 24.2 mph N/A   Mostly Cloudy
2:54 PM 80.1 °F 46.9 °F 31% 30.23 in 10.0 mi East 17.3 mph 25.3 mph N/A   Mostly Cloudy
3:54 PM 80.1 °F 46.0 °F 30% 30.22 in 10.0 mi ESE 17.3 mph - N/A   Mostly Cloudy
4:54 PM 78.1 °F 46.0 °F 32% 30.22 in 10.0 mi East 18.4 mph 24.2 mph N/A   Mostly Cloudy
5:54 PM 78.1 °F 48.0 °F 35% 30.21 in 10.0 mi East 16.1 mph 21.9 mph N/A   Mostly Cloudy
6:54 PM 73.0 °F 48.0 °F 41% 30.20 in 10.0 mi East 18.4 mph - N/A   Mostly Cloudy
7:54 PM 71.1 °F 52.0 °F 51% 30.22 in 10.0 mi ENE 18.4 mph - N/A   Mostly Cloudy
8:54 PM 68.0 °F 51.1 °F 55% 30.22 in 10.0 mi East 16.1 mph - N/A   Mostly Cloudy
9:54 PM 66.9 °F 53.1 °F 61% 30.23 in 10.0 mi ENE 16.1 mph - 0.00 in Rain Light Rain
10:54 PM 64.9 °F 53.1 °F 65% 30.22 in 10.0 mi ENE 15.0 mph - 0.00 in   Overcast
11:47 PM 64.9 °F 53.1 °F 65% 30.19 in 8.0 mi ENE 12.7 mph - N/A   Overcast
11:54 PM 64.9 °F 53.1 °F 65% 30.19 in 8.0 mi ENE 10.4 mph - N/A   Overcast